Other Public Products
Issued by NWS Grand Forks, ND

Home | Current Version | Previous Version | Text Only | Print | Product List | Glossary Off
Versions: 1 2 3 4 5 6 7 8 9 10 11 12 13 14 15 16 17 18 19 20 21 22 23 24 25 26 27 28 29 30 31 32 33 34 35 36 37 38 39 40 41 42 43 44 45 46 47 48 49 50

000
FPUS83 KFGF 070731
OPUFGF
PRAIRIE TO PINES WEATHER ROUNDUP
NATIONAL WEATHER SERVICE EASTERN NORTH DAKOTA/GRAND FORKS ND
100 AM CST SUN FEB 07 2016

 **SATELLITE DATA USED TO AUGMENT SKY COVER AT AUTOMATED STATIONS**
 *****  WEATHER ACROSS EASTERN NORTH DAKOTA  *****

CITY           SKY/WX    TMP DP  RH WIND       PRES   REMARKS
GRAND FORKS    CLOUDY    37  32  82 W21       29.47R
GRAND FORKS AF CLOUDY    36  32  87 W21G26    29.47S
GRAND CITY NWS   N/A     36 N/A N/A W21         N/A
BUXTON           N/A     35  35  98 W18G31      N/A  WCI  25
DEVILS LAKE    LGT RAIN  35  30  82 W33G43    29.51S WCI  21
FARGO          CLOUDY    38  32  79 W22G30    29.55S
WAHPETON ARPT  CLOUDY    36  32  87 W18       29.61S
$$

 *****  WEATHER ACROSS CENTRAL AND WESTERN NORTH DAKOTA  *****

CITY           SKY/WX    TMP DP  RH WIND       PRES   REMARKS
JAMESTOWN      CLOUDY    37  27  67 W25G37    29.61R
BISMARCK       PTCLDY    40  23  50 W22G31    29.79R
MINOT          CLOUDY    39  21  48 W24G31    29.67R
MINOT AFB      MOCLDY    37  24  58 W24G30    29.64R
GARRISON         N/A     35  23  61 W20       29.73R WCI  24
WILLISTON      CLEAR     35  24  64 W23G29    29.82S WCI  23
DICKINSON      PTCLDY    33  24  69 W24G35    29.85R WCI  20
HETTINGER      CLEAR     34  23  64 W25G33    29.92R WCI  21
$$

 *****  OTHER OBSERVATIONS NORTHEAST NORTH DAKOTA  *****

CITY           SKY/WX    TMP DP  RH WIND       PRES   REMARKS
WALHALLA       FAIR      36  36 100 NW25G38   29.42R
LANGDON        LGT SNOW  34  32  93 NW32G44   29.44R WCI  20
CAVALIER       CLOUDY    37  32  81 NW26G35   29.42R
GRAFTON        CLOUDY    36  34  93 W17       29.45S
CANDO          CLOUDY    34  32  93 NW28G37   29.53R WCI  20
FORT TOTTEN    NOT AVBL
ROLLA          FLURRIES  34  28  80 NW26G43   29.49S WCI  21
RUGBY          FAIR      34  27  75 NW33G41   29.57R WCI  19
 ***** THE ABOVE OBSERVATIONS ARE NON NWS ARE NOT QUALITY
        CONTROLLED AND MAY MIS-REPORT RAIN FOR SNOW...
$$

 *****  OTHER OBSERVATIONS SOUTHEAST NORTH DAKOTA *****

CITY           SKY/WX    TMP DP  RH WIND       PRES   REMARKS
COOPERSTOWN    NOT AVBL
VALLEY CITY    FLURRIES  37  32  81 W26G37    29.60S
OAKES          PTSUNNY   37  28  70 W30G37    29.64S
GWINNER        FAIR      39  32  75 W24G32    29.62S
SHEYENNE NWR     N/A     39  33  78 W21       29.95S
BUFFALO          N/A     36  30  78 W26G41      N/A
WYNDMERE         N/A     39  34  81 W23         N/A
 ***** THE ABOVE OBSERVATIONS ARE NON NWS ARE NOT QUALITY
       CONTROLLED AND MAY MIS-REPORT RAIN FOR SNOW...
$$

  *****  WEATHER ACROSS NORTHERN MINNESOTA  *****

CITY           SKY/WX    TMP DP  RH WIND       PRES   REMARKS
FLAG ISLAND    CLOUDY    32  28  86 SE10      29.35F WCI  24
WARROAD        PTCLDY    37  32  81 SW10      29.38S
ROSEAU         CLOUDY    36  30  80 SW9       29.38S
HALLOCK        CLOUDY    37  34  87 W13       29.41R
THF RVR FALLS  CLOUDY    36  30  80 SW13      29.44F
HALSTAD          N/A     37  32  83 NW22        N/A
FOSSTON        DRIZZLE   34  30  86 SW13      29.47F WCI  25
BAUDETTE       CLOUDY    36  30  79 SW9       29.38F
WASKISH        MOCLDY    37  34  87 S12       29.42F
CROOKSTON      MIX PCPN  36  34  93 W20       29.47S
$$
  *****  WEATHER ACROSS CENTRAL AND WEST MINNESOTA  *****

CITY           SKY/WX    TMP DP  RH WIND       PRES   REMARKS
BEMIDJI        CLOUDY    36  32  85 SW7       29.46F
PARK RAPIDS    MOCLDY    36  31  82 SW10      29.51F
WADENA         PTCLDY    36  30  80 W15G21    29.54F
DETROIT LAKES  LGT RAIN  36  34  93 W13G21    29.53F
MOORHEAD       CLOUDY    37  32  81 W25G31    29.55S
FERGUS FALLS   DRIZZLE   36  32  87 W17       29.61F
ELBOW LAKE     LGT RAIN  36  31  85 W22G29    29.62S
MORRIS MN      MOCLDY    37  32  81 NW23G36   29.64S
STAPLES        CLEAR     34  30  86 SW13      29.55F WCI  25
WHEATON        MOCLDY    39  34  81 W14       29.66S
$$
  *****  WEATHER ELSEWHERE ACROSS MINNESOTA  *****

CITY           SKY/WX    TMP DP  RH WIND       PRES   REMARKS
DULUTH         FRZ DRZL  32  29  88 SW16      29.56F FOG     WCI  21
INTRNTL FALLS  CLOUDY    32  30  92 VRB5      29.43F
ELY            CLOUDY    30  28  93 S7        29.51F WCI  23
CLOQUET        CLOUDY    34  30  86 S14G22    29.57F WCI  24
BRAINERD       MOCLDY    34  30  85 S9        29.57F
HIBBING        CLOUDY    31  30  96 S6        29.51F
ALEXANDRIA     MOCLDY    36  29  75 W15       29.60F
SAINT CLOUD    LGT RAIN  34  30  85 W10       29.66F
MINNEAPOLIS    CLOUDY    34  27  75 SW10      29.70F
$$

  *****  WEATHER ACROSS SOUTH DAKOTA  *****

CITY           SKY/WX    TMP DP  RH WIND       PRES   REMARKS
SIOUX FALLS    CLEAR     38  28  67 W14       29.81S
BROOKINGS      CLEAR     37  28  70 W20G28    29.75R
WATERTOWN      PTCLDY    36  26  67 W20       29.72S
HURON          CLEAR     37  29  72 W22       29.82R
SISSETON         N/A     40  32  73 NW21G36   29.64S
ABERDEEN       CLEAR     40  27  59 W21G32    29.74R
MITCHELL       CLEAR     39  29  67 W21G29    29.86R
PIERRE         CLEAR     36  26  67 W15       29.92R
MOBRIDGE       CLEAR     39  25  57 NW20G30   29.81R
RAPID CITY     PTCLDY    37  17  44 NW21G32   30.04R
$$

  *****  SOME WEATHER IN NEARBY STATES *****

CITY           SKY/WX    TMP DP  RH WIND       PRES   REMARKS
GLASGOW MT     PTCLDY    32  23  69 W20       29.99R WCI  20
GREAT FALLS MT CLEAR     29  15  56 W15       30.25R WCI  18
CHEYENNE WY    MOCLDY    37  15  40 W24G32    30.09F
SCOTTSBLUFF NE CLEAR     32  22  66 NW10      30.14R WCI  24
OMAHA NE       CLOUDY    39  28  64 VRB3      29.94S
DES MOINES IA  CLOUDY    37  27  67 SW12      29.92R
DAVENPORT IA   MOCLDY    38  29  70 S13       29.97F
CHICAGO IL     CLOUDY    34  29  82 SW6       30.02F
EAU CLAIRE WI  CLOUDY    32  26  78 S12       29.72F WCI  23
LA CROSSE WI   CLOUDY    33  28  81 S13       29.81F WCI  24
$$

  *****  SOME NATIONAL WEATHER *****

CITY           SKY/WX    TMP DP  RH WIND       PRES   REMARKS
LA GUARDIA NY  PTCLDY    37  22  54 SW6       30.23F
RALEIGH NC     CLOUDY    39  24  55 NE7       30.19F
ATLANTA GA     CLEAR     34  20  56 N8        30.16F
NEW ORLEANS LA CLEAR     42  30  62 CALM      30.27F
OKLAHOMA CITY  CLEAR     35  27  72 S9        30.21S
ALBUQUERQUE NM CLEAR     38  14  37 N10G22    30.38R
SALT LAKE CITY MOCLDY    29  21  72 SE7       30.50R WCI  22
LOS ANGELES CA CLEAR     64  27  24 CALM      30.16S
BOISE ID       CLEAR     30  28  92 CALM      30.46S
SEATTLE WA     CLEAR     40  37  89 E7        30.49S
$$

*** WEATHER ACROSS MANITOBA...SASKATCHEWAN AND ONTARIO ***
                ***ONTARIO***

CITY           SKY/WX    TMP DP  RH WIND       PRES   REMARKS
GERALDTON      LGT SNOW  -2  -8  78 E12       29.85F WCI -20
THUNDER BAY    LGT SNOW  28  28 100 NE8       29.65F WCI  20
SIOUX LOOKOUT  LGT SNOW  14  12  92 E7        29.53F DRFTSNOWWCI   4
TORONTO        CLEAR     28  21  74 SW5       30.09F WCI  23
BIG TROUT LK   CLEAR    -22 -27  76 E5        29.93S WCI -36
PICKLE LAKE    NOT AVBL
DRYDEN         LGT SNOW  23  21  93 E9        29.45F WCI  13
KENORA         FLURRIES  28  27  93 SE6       29.38F WCI  22
$$
                *** MANITOBA***

CITY           SKY/WX    TMP DP  RH WIND       PRES   REMARKS
BRANDON        CLOUDY    36  30  80 W26G33    29.46R
DAUPHIN        LGT SNOW  28  28 100 N7        29.45R WCI  21
ISLAND LAKE    FLURRIES  -2  -8  78 E7        29.66F WCI -16
PILOT MOUND      N/A     34  32  93 NW21G31     N/A  WCI  22
THE PAS        LGT SNOW   9   5  85 N8        29.58R WCI  -4
THOMPSON       LGT SNOW  -8 -13  77 NE9       29.72R DRFTSNOWWCI -25
WINNIPEG       MOCLDY    28  27  93 NW25G33   29.36R WCI  14
LYNN LAKE      FLURRIES  -6  -9  84 E6        29.72R WCI -18
CHURCHILL      MOCLDY   -18 -26  69 SE10      30.12S WCI -39
$$
                ***SASKATCHEWAN***

CITY           SKY/WX    TMP DP  RH WIND       PRES   REMARKS
ESTEVAN        NOT AVBL
KINDERSLEY     PTCLDY    30  21  69 NW30G43   29.94R WCI  15
LLOYDMINSTER   CLOUDY    28  19  69 NW24G38   29.92R WCI  14
PRINCE ALBERT  MOCLDY    25  14  63 N24G40    29.70R WCI   9
REGINA         FLURRIES  32  28  86 W32G43    29.68R WCI  17
YORKTON        LGT RAIN  36  28  75 W26G35    29.51R
N. BATTLEFORD  LGT SNOW  28  28 100 NW26G35   29.86R WCC1F1C2F2C3F3C4F4C5F5C6F6C7F7C8F8C9F9CaFaCbFbCcFcCdFdCe!



USA.gov is the U.S. government's official web portal to all federal, state and local government web resources and services.